ACA290 CYPQ-CYYZ

Flight info

Callsign ACA290
Flight time N/A
Altitude 28000
Route TALEB DCT NUBER NUBER6
Aircraft B738/M-SDGIJ1LRWY/SB1

Departure

Time 2026-05-06 13:29
Airport Peterborough Regional Airport (CYPQ)

Arrival

Time N/A
Airport Toronto Pearson International Airport (CYYZ)
Time Latitude Longitude Altitude Speed Heading
2026-05-06 13:28 44.22831 -78.37561 626 ft 0 kts 76°
2026-05-06 13:29 44.22845 -78.37480 626 ft 35 kts 77°
2026-05-06 13:29 44.22991 -78.36700 626 ft 139 kts 76°
2026-05-06 13:29 44.23252 -78.35391 1373 ft 163 kts 73°
2026-05-06 13:30 44.23508 -78.34066 2449 ft 170 kts 88°
2026-05-06 13:30 44.23146 -78.32623 3335 ft 185 kts 130°
2026-05-06 13:30 44.22210 -78.31683 4122 ft 201 kts 158°
2026-05-06 13:30 44.20826 -78.31345 5028 ft 216 kts 187°
2026-05-06 13:31 44.19384 -78.31802 6026 ft 228 kts 200°
2026-05-06 13:31 44.18029 -78.32384 6949 ft 240 kts 201°
2026-05-06 13:31 44.16463 -78.33028 8001 ft 251 kts 200°
2026-05-06 13:31 44.14855 -78.33663 9060 ft 260 kts 200°
2026-05-06 13:32 44.13113 -78.34338 10257 ft 266 kts 200°
2026-05-06 13:32 44.11337 -78.35028 11255 ft 278 kts 200°
2026-05-06 13:32 44.09447 -78.35767 12215 ft 289 kts 201°
2026-05-06 13:32 44.07496 -78.36532 13090 ft 302 kts 201°
2026-05-06 13:33 44.05586 -78.37279 13848 ft 309 kts 202°
2026-05-06 13:33 44.03515 -78.38322 14507 ft 316 kts 211°
2026-05-06 13:33 44.01745 -78.40101 15045 ft 322 kts 229°
2026-05-06 13:33 44.00481 -78.42702 15546 ft 333 kts 245°
2026-05-06 13:34 43.99616 -78.45749 16102 ft 344 kts 249°
2026-05-06 13:34 43.98799 -78.48896 16477 ft 359 kts 249°
2026-05-06 13:34 43.97934 -78.52201 16813 ft 374 kts 249°
2026-05-06 13:34 43.97023 -78.55671 17353 ft 383 kts 250°
2026-05-06 13:35 43.96107 -78.59119 18093 ft 386 kts 249°
2026-05-06 13:35 43.95209 -78.62453 18887 ft 387 kts 249°
2026-05-06 13:35 43.94347 -78.65635 19673 ft 386 kts 249°
2026-05-06 13:35 43.93513 -78.68696 20370 ft 388 kts 249°
2026-05-06 13:36 43.92661 -78.71808 21032 ft 390 kts 249°
2026-05-06 13:36 43.91753 -78.75124 21673 ft 393 kts 249°
2026-05-06 13:36 43.90828 -78.78497 22294 ft 396 kts 249°
2026-05-06 13:36 43.89909 -78.81844 22947 ft 398 kts 250°
2026-05-06 13:37 43.89076 -78.84877 23497 ft 400 kts 250°
2026-05-06 13:37 43.88180 -78.88139 24075 ft 403 kts 249°
2026-05-06 13:37 43.87359 -78.91127 24662 ft 404 kts 250°
2026-05-06 13:37 43.86449 -78.94437 25241 ft 407 kts 249°
2026-05-06 13:38 43.85454 -78.98045 25972 ft 407 kts 249°
2026-05-06 13:38 43.84454 -79.01665 26569 ft 410 kts 249°
2026-05-06 13:38 43.83434 -79.05351 27053 ft 415 kts 249°
2026-05-06 13:38 43.82406 -79.09064 27638 ft 416 kts 249°
2026-05-06 13:39 43.81392 -79.12711 27870 ft 411 kts 249°
2026-05-06 13:39 43.80396 -79.16279 27867 ft 401 kts 249°
2026-05-06 13:39 43.79410 -79.19801 27868 ft 400 kts 249°
2026-05-06 13:39 43.78451 -79.23225 27675 ft 401 kts 249°
2026-05-06 13:40 43.77490 -79.26663 27428 ft 400 kts 249°
2026-05-06 13:40 43.76535 -79.30084 27169 ft 400 kts 249°
2026-05-06 13:40 43.75615 -79.33377 26919 ft 403 kts 249°
2026-05-06 13:40 43.74936 -79.35804 26739 ft 404 kts 249°
2026-05-06 13:41 43.74017 -79.39091 26497 ft 404 kts 250°
2026-05-06 13:41 43.73103 -79.42351 26250 ft 405 kts 249°
2026-05-06 13:41 43.72203 -79.45561 26015 ft 407 kts 250°
2026-05-06 13:41 43.71285 -79.48831 25782 ft 409 kts 250°
2026-05-06 13:42 43.70388 -79.52018 25551 ft 409 kts 249°
2026-05-06 13:42 43.69489 -79.55205 25315 ft 407 kts 250°
2026-05-06 13:42 43.68699 -79.58363 24549 ft 397 kts 254°
2026-05-06 13:42 43.68112 -79.61522 23284 ft 393 kts 257°
2026-05-06 13:43 43.67651 -79.64697 22213 ft 384 kts 259°
2026-05-06 13:43 43.67297 -79.67808 21503 ft 372 kts 262°
2026-05-06 13:43 43.67274 -79.70833 20771 ft 361 kts 271°
2026-05-06 13:43 43.67581 -79.73761 20137 ft 350 kts 278°
2026-05-06 13:44 43.68109 -79.76572 19588 ft 337 kts 282°
2026-05-06 13:44 43.68752 -79.79251 19047 ft 326 kts 286°
2026-05-06 13:44 43.69680 -79.81803 18513 ft 320 kts 296°
2026-05-06 13:44 43.70966 -79.84145 18037 ft 312 kts 304°
2026-05-06 13:45 43.72429 -79.86247 17589 ft 302 kts 307°
2026-05-06 13:45 43.75398 -79.90093 16521 ft 287 kts 308°
2026-05-06 13:45 43.76833 -79.91951 15674 ft 289 kts 308°
2026-05-06 13:46 43.78281 -79.93850 14816 ft 290 kts 308°
2026-05-06 13:46 43.79742 -79.95766 13775 ft 297 kts 308°
2026-05-06 13:46 43.81239 -79.97738 12743 ft 302 kts 309°
2026-05-06 13:46 43.82729 -79.99535 11725 ft 313 kts 318°
2026-05-06 13:47 43.84489 -80.00826 10692 ft 330 kts 337°
2026-05-06 13:47 43.86549 -80.01222 9532 ft 350 kts 359°
2026-05-06 13:47 43.88665 -80.00603 8359 ft 360 kts 20°
2026-05-06 13:47 43.90464 -79.99179 7232 ft 363 kts 37°
2026-05-06 13:48 43.92047 -79.97034 6045 ft 363 kts 51°
2026-05-06 13:48 43.93138 -79.94343 5156 ft 352 kts 70°
2026-05-06 13:48 43.93531 -79.91412 4419 ft 338 kts 89°
2026-05-06 13:48 43.93209 -79.88543 3661 ft 327 kts 108°
2026-05-06 13:49 43.92199 -79.86046 2938 ft 315 kts 131°
2026-05-06 13:49 43.90717 -79.84427 3041 ft 281 kts 148°
2026-05-06 13:49 43.89209 -79.83313 3053 ft 255 kts 152°
2026-05-06 13:49 43.87812 -79.82404 3076 ft 232 kts 156°
2026-05-06 13:50 43.86483 -79.81897 3052 ft 214 kts 168°
2026-05-06 13:50 43.85199 -79.81604 3061 ft 195 kts 170°
2026-05-06 13:50 43.84066 -79.81293 3039 ft 179 kts 162°
2026-05-06 13:50 43.83033 -79.80837 2992 ft 166 kts 157°
2026-05-06 13:51 43.82031 -79.80238 3038 ft 176 kts 151°
2026-05-06 13:51 43.81010 -79.79403 3037 ft 195 kts 145°
2026-05-06 13:51 43.80035 -79.78379 3017 ft 182 kts 137°
2026-05-06 13:51 43.79173 -79.77271 3012 ft 184 kts 134°
2026-05-06 13:52 43.78366 -79.76187 2958 ft 170 kts 134°
2026-05-06 13:52 43.77586 -79.75162 2924 ft 169 kts 135°
2026-05-06 13:52 43.76790 -79.74123 2890 ft 165 kts 135°
2026-05-06 13:52 43.76013 -79.73108 2768 ft 159 kts 134°
2026-05-06 13:53 43.75239 -79.72096 2493 ft 155 kts 134°
2026-05-06 13:53 43.74487 -79.71112 2154 ft 154 kts 135°
2026-05-06 13:53 43.73732 -79.70127 1720 ft 152 kts 134°
2026-05-06 13:53 43.73012 -79.69192 1576 ft 145 kts 135°
2026-05-06 13:54 43.72298 -79.68250 1402 ft 148 kts 135°
2026-05-06 13:54 43.71589 -79.67343 1204 ft 146 kts 137°
2026-05-06 13:54 43.70884 -79.66442 1028 ft 148 kts 133°
2026-05-06 13:54 43.70210 -79.65515 840 ft 148 kts 134°
2026-05-06 13:55 43.69513 -79.64645 667 ft 144 kts 136°
2026-05-06 13:55 43.68860 -79.63795 545 ft 136 kts 134°
2026-05-06 13:55 43.72871 -79.69023 1513 ft 141 kts 136°